EW7191 Weather Reports


Display with metric or nautical units.
time (UTC)temp
F
wind
direction
speed
MPH
gust
MPH
rain 1hr
in
rain 24hr
in
rain mn
in
humidity
%
barometer
mb
20260904044508 50 91 0.0 0.0 0.00 0.00 0.00 90 1017.9
20260904043006 50 86 0.0 0.0 0.00 0.00 0.00 89 1017.9
20260904041506 50 86 0.0 0.0 0.00 0.00 0.00 88 1017.9
20260904040007 51 86 0.0 0.0 0.00 0.00 0.00 86 1017.9
20260904034505 52 86 0.0 0.0 0.00 0.00 0.00 85 1017.8
20260904033004 52 105 0.0 0.0 0.00 0.00 0.00 84 1017.6
20260904031504 53 101 0.0 0.0 0.00 0.00 0.00 81 1017.4
20260904030012 54 96 0.0 0.0 0.00 0.00 0.00 79 1017.4
20260904024504 55 129 0.0 0.0 0.00 0.00 0.00 76 1017.3
20260904023003 56 249 0.0 0.0 0.00 0.00 0.00 74 1017.6
20260904021507 57 251 0.0 0.0 0.00 0.00 0.00 74 1017.6
20260904020003 58 126 0.0 2.0 0.00 0.00 0.00 71 1017.6
20260904014503 59 285 0.0 8.0 0.00 0.00 0.00 68 1017.6
20260904013002 60 144 0.0 3.0 0.00 0.00 0.00 63 1017.5
20260904011500 62 287 0.0 8.0 0.00 0.00 0.00 61 1017.5
20260904010101 63 255 0.0 4.0 0.00 0.00 0.00 57 1017.2
20260904004559 63 281 0.0 5.0 0.00 0.00 0.00 59 1017.1
20260904003058 62 248 0.0 3.0 0.00 0.00 0.00 59 1017.1
20260904001559 64 260 0.0 6.0 0.00 0.00 0.00 58 1017.0
20260904000057 64 266 0.0 7.0 0.00 0.00 0.00 56 1017.1
20260903234556 65 262 0.0 5.0 0.00 0.00 0.00 53 1017.0
20260903233055 66 205 0.0 8.0 0.00 0.00 0.00 55 1017.1
20260903231602 66 248 0.0 3.0 0.00 0.00 0.00 58 1017.4
20260903230052 63 244 0.0 3.0 0.00 0.00 0.00 63 1017.4
20260903224548 64 255 0.0 1.0 0.00 0.00 0.00 61 1017.5
20260903223047 63 301 0.0 0.0 0.00 0.00 0.00 63 1017.7
20260903221545 60 157 0.0 1.0 0.00 0.00 0.00 73 1017.7
20260903220048 59 262 0.0 3.0 0.00 0.00 0.00 78 1017.8
20260903214546 60 288 0.0 0.0 0.00 0.00 0.00 72 1017.8
20260903213043 61 282 0.0 0.0 0.00 0.00 0.00 67 1017.8
20260903211542 62 171 0.0 1.0 0.00 0.00 0.00 65 1017.6
20260903210044 62 290 0.0 2.0 0.00 0.00 0.00 72 1017.5
20260903204538 61 58 0.0 2.0 0.00 0.00 0.00 75 1017.7
20260903203034 59 99 0.0 0.0 0.00 0.00 0.00 81 1018.0
20260903201533 58 267 0.0 0.0 0.00 0.00 0.00 89 1018.1
20260903200027 57 267 0.0 0.0 0.00 0.00 0.00 92 1018.2
20260903194524 56 267 0.0 0.0 0.00 0.00 0.00 92 1018.4
20260903193023 56 267 0.0 0.0 0.00 0.00 0.00 92 1018.5
20260903191522 56 267 0.0 0.0 0.00 0.00 0.00 93 1018.6
20260903190021 55 267 0.0 0.0 0.00 0.00 0.00 94 1018.7
20260903184523 55 267 0.0 0.0 0.00 0.00 0.00 94 1018.7
20260903183021 55 243 0.0 0.0 0.00 0.00 0.00 94 1018.7
20260903181519 56 264 0.0 0.0 0.00 0.00 0.00 94 1018.6
20260903180020 56 105 0.0 0.0 0.00 0.00 0.00 95 1018.5
20260903174515 54 105 0.0 0.0 0.00 0.00 0.00 95 1018.4
20260903173018 54 101 0.0 1.0 0.00 0.00 0.00 95 1018.6
20260903171512 53 104 0.0 0.0 0.00 0.00 0.00 95 1018.6
20260903170012 53 302 0.0 0.0 0.00 0.00 0.00 95 1018.7
20260903164510 54 259 0.0 0.0 0.00 0.00 0.00 95 1018.7
20260903163009 53 259 0.0 0.0 0.00 0.00 0.00 95 1018.7
20260903161508 53 259 0.0 0.0 0.00 0.00 0.00 95 1019.0
20260903160011 53 259 0.0 0.0 0.00 0.00 0.00 96 1019.2
20260903154504 52 266 0.0 0.0 0.00 0.00 0.00 96 1019.4
20260903153001 52 266 0.0 0.0 0.00 0.00 0.00 96 1019.6
20260903151600 51 269 0.0 0.0 0.00 0.00 0.00 96 1019.5
20260903150100 51 269 0.0 0.0 0.00 0.00 0.00 96 1019.4
20260903144559 50 269 0.0 0.0 0.00 0.00 0.00 96 1019.1
20260903143109 50 281 0.0 0.0 0.00 0.00 0.00 96 1019.0
20260903141558 50 281 0.0 0.0 0.00 0.00 0.00 96 1019.1
20260903140058 50 281 0.0 0.0 0.00 0.00 0.00 96 1019.0
20260903134556 50 281 0.0 0.0 0.00 0.00 0.00 96 1018.9
20260903133108 49 281 0.0 0.0 0.00 0.00 0.00 96 1018.8
20260903131607 49 281 0.0 0.0 0.00 0.00 0.00 96 1018.8
20260903130107 49 79 0.0 0.0 0.00 0.00 0.00 96 1018.8
20260903124553 49 79 0.0 0.0 0.00 0.00 0.00 96 1018.6
20260903123054 49 79 0.0 0.0 0.00 0.00 0.00 96 1018.7
20260903121552 48 79 0.0 0.0 0.00 0.00 0.00 95 1019.0
20260903120051 49 79 0.0 0.0 0.00 0.00 0.00 95 1018.9
20260903114550 49 79 0.0 0.0 0.00 0.00 0.00 95 1018.8
20260903113049 49 79 0.0 0.0 0.00 0.00 0.00 96 1018.8
20260903111554 49 79 0.0 0.0 0.00 0.00 0.00 95 1019.0
20260903110047 49 79 0.0 0.0 0.00 0.00 0.00 95 1018.9
20260903104547 49 79 0.0 0.0 0.00 0.00 0.00 95 1019.1
20260903103046 48 79 0.0 0.0 0.00 0.00 0.00 95 1019.2
20260903101548 49 79 0.0 0.0 0.00 0.00 0.00 95 1019.2
20260903100045 49 79 0.0 0.0 0.00 0.00 0.00 95 1019.3
20260903094549 48 79 0.0 0.0 0.00 0.00 0.00 95 1019.2
20260903093045 48 79 0.0 0.0 0.00 0.00 0.00 95 1019.2
20260903091544 49 84 0.0 0.0 0.00 0.00 0.00 95 1019.2
20260903090043 48 84 0.0 0.0 0.00 0.00 0.00 95 1019.4
20260903084543 48 84 0.0 0.0 0.00 0.00 0.00 95 1019.4
20260903083046 49 84 0.0 0.0 0.00 0.00 0.00 95 1019.3
20260903081539 49 84 0.0 0.0 0.00 0.00 0.00 95 1019.3
20260903080039 50 84 0.0 0.0 0.00 0.00 0.00 94 1019.2
20260903074534 50 84 0.0 0.0 0.00 0.00 0.00 95 1019.2
20260903073034 51 84 0.0 0.0 0.00 0.00 0.00 95 1019.2
20260903071530 51 84 0.0 0.0 0.00 0.00 0.00 94 1019.1
20260903070026 52 84 0.0 0.0 0.00 0.00 0.00 94 1018.9
20260903064529 52 84 0.0 0.0 0.00 0.00 0.00 94 1018.9
20260903063021 53 84 0.0 0.0 0.00 0.00 0.00 94 1018.8
20260903061523 53 118 0.0 0.0 0.00 0.00 0.00 94 1018.8
20260903060020 53 91 0.0 0.0 0.00 0.00 0.00 94 1019.0
20260903054518 54 91 0.0 0.0 0.00 0.00 0.00 94 1018.9
20260903053017 54 91 0.0 0.0 0.00 0.00 0.00 94 1019.1
20260903051516 54 101 0.0 0.0 0.00 0.00 0.00 94 1019.1
20260903050017 54 101 0.0 0.0 0.00 0.00 0.00 94 1019.1